Location: Centerville
(32.8776°N, 96.6203°W)
Time: 00:00:03
(UTC+00:00)

Hubble Space Telescope - Visible Passes

Search period start: 29 November 2022 00:00
Search period end: 09 December 2022 00:00
Orbit: 530 x 534 km, 28.5° (Epoch: 27 November)

Date Brightness Start Highest point End Pass type
(mag) Time Alt. Az. Time Alt. Az. Time Alt. Az.
03 Dec 3.9 12:28:34 10° SSE 12:29:31 11° SSE 12:30:27 10° SE visible
04 Dec 3.6 12:14:47 10° S 12:16:47 13° SSE 12:18:46 10° SE visible
05 Dec 3.4 12:01:30 10° SSW 12:04:03 16° SSE 12:06:37 10° ESE visible
06 Dec 3.1 11:48:24 10° SSW 11:51:20 19° SSE 11:54:16 10° ESE visible
07 Dec 2.8 11:36:09 14° SSW 11:38:37 22° SSE 11:41:50 10° ESE visible
08 Dec 2.5 11:24:40 22° SSW 11:25:54 26° SSE 11:29:19 10° ESE visible
